Regional Weather Roundup
Issued by NWS Albany, NY

Home | Current Version | Previous Version | Text Only | Print | Product List | Glossary On
Versions: 1 2 3 4 5 6 7 8 9 10 11 12 13 14 15 16 17 18 19 20 21 22 23 24 25 26 27
000
ASUS41 KALY 011010
RWRALY

NEW YORK STATE HOURLY WEATHER ROUNDUP
NATIONAL WEATHER SERVICE ALBANY NY
600 AM EDT SUN MAY 01 2016

NOTE: "FAIR" INDICATES FEW OR NO CLOUDS BELOW 12,000 FEET WITH NO
SIGNIFICANT WEATHER AND/OR NO OBSTRUCTIONS TO VISIBILITY.

NYZ032-033-038>043-046>054-057>066-NYZ062>081-082-084-011100-
EAST


CITY           SKY/WX    TMP DP  RH WIND       PRES   REMARKS
ALBANY         CLOUDY    51  35  54 S6        30.17S
GLENS FALLS    CLOUDY    45  34  65 CALM      30.18R
POUGHKEEPSIE   CLOUDY    49  38  65 SE3       30.18F
NEWBURGH       CLOUDY    48  37  66 CALM      30.19F
MONTGOMERY     CLOUDY    48  40  73 CALM      30.18S
WHITE PLAINS   MOCLDY    46  39  76 CALM      30.19S
ISLIP          CLOUDY    47  39  74 E5        30.21R
NEW YORK CITY  CLOUDY    50  36  58 E5        30.19S
CENTRAL PARK   CLOUDY    50  36  58 VRB3      30.22S
$$

NYZ005>009-017-018-044>046-055-056-011100-
CENTRAL


CITY           SKY/WX    TMP DP  RH WIND       PRES   REMARKS
FULTON         LGT RAIN  51  47  86 VRB5      30.08F
SYRACUSE       LGT RAIN  49  47  93 E7        30.08F
ROME           LGT RAIN  48  47  96 SE5       30.13S
ELMIRA         RAIN      49  45  86 E8        30.03F FOG
BINGHAMTON     LGT RAIN  44  44 100 SE12      30.07F FOG
MONTICELLO     CLOUDY    43  37  81 SE3       30.17S
$$

NYZ026>034-041>043-087-011100-
NORTH


CITY           SKY/WX    TMP DP  RH WIND       PRES   REMARKS
WATERTOWN      LGT RAIN  50  43  77 SE5       30.10S
FORT DRUM      NOT AVBL
MASSENA        CLOUDY    46  20  35 NE10      30.16S
SARANAC LAKE   CLOUDY    39  21  48 CALM      30.13S
PLATTSBURGH    CLOUDY    40  27  59 CALM      30.17S
$$

NYZ001>004-010>016-019>021-085-011100-
WEST


CITY           SKY/WX    TMP DP  RH WIND       PRES   REMARKS
BUFFALO        LGT RAIN  48  46  93 E10       29.96F
DUNKIRK        LGT RAIN  49  47  93 NE8       29.93F FOG
JAMESTOWN      CLOUDY    46  45  93 SE7       29.90F
WELLSVILLE     CLOUDY    46  44  93 SE7       29.96F
ROCHESTER      LGT RAIN  49  47  93 E9        30.01F
PENN YAN       LGT RAIN  48  46  93 E5        30.03F FOG
$$

             KEY
       WCI = WIND CHILL INDEX
       VSB = VISIBILITY
       HX  = HEAT INDEX
$$




USA.gov is the U.S. government's official web portal to all federal, state and local government web resources and services.